Flag for Philippines Weather past 2 weeks in Makati, Philippines

Now
88 °F

Scattered clouds.


Feels Like: 89 °F
Forecast: 75 / 90 °F
Wind: 15 mph from Southeast

Location: National Airport

Current Time: Feb 27, 2015 at 4:23:08 PM

Latest Report: Feb 27, 2015 at 4:00 PM


Visibility: N/A

Pressure: 29.86 "Hg

Humidity: 46%

Dew point: 64 °F

Location of MakatiLocation

Historic Weather in Makati — Graph

°F

Makati temperature yesterday

Maximum temperature yesterday: 90 °F (at 1:00 PM)
Minimum temperature yesterday: 75 °F (at 6:00 AM)
Average temperature yesterday: 82 °F

Past Weeks' High & Low Weather Summary

 TemperatureHumidityPressure
High90 °F (Feb 24, 3:00 PM)100% (Feb 13, 7:00 AM)30.01 "Hg (Feb 13, 7:00 AM)
Low68 °F (Feb 20, 1:00 PM)46% (Feb 22, 12:00 PM)29.83 "Hg (Feb 12, 3:00 PM)
Average80 °F68%29.93 "Hg
* Reported Feb 12 3:00 PM — Feb 27 3:00 PM, Makati, Weather by CustomWeather, © 2015

Note: Actual official high and low records may vary slightly from our data, if they occured in-between our weather recording intervals... More about our weather records

Advertising

Makati weather history for previous 24 hours

 ConditionsComfort  
Time TempWeatherWind HumidityBarometerVisibility
3:00 PM
Fri, Feb 27
88 °FScattered clouds.15 mph52%29.86 "HgN/A
2:00 PM90 °FScattered clouds.15 mph49%29.86 "HgN/A
1:00 PM90 °FPassing clouds.13 mph49%29.89 "HgN/A
12:00 PM90 °FPassing clouds.12 mph52%29.92 "HgN/A
11:00 AM88 °FPassing clouds.13 mph55%N/AN/A
10:00 AM86 °FPassing clouds.12 mph59%29.98 "HgN/A
9:00 AM82 °FPassing clouds.12 mph70%29.98 "HgN/A
8:00 AM81 °FPassing clouds.9 mph74%29.98 "HgN/A
7:00 AM75 °FPassing clouds.5 mph89%29.95 "HgN/A
6:00 AM75 °FPassing clouds.2 mph83%29.92 "HgN/A
5:00 AM75 °FPassing clouds.1 mph83%29.92 "HgN/A
4:00 AM77 °FPassing clouds.2 mph79%29.89 "HgN/A
3:00 AM77 °FPassing clouds.3 mph79%29.89 "HgN/A
2:00 AM79 °FPassing clouds.5 mph74%29.92 "HgN/A
1:00 AM79 °FPassing clouds.6 mph70%29.92 "HgN/A
12:00 AM79 °FPassing clouds.8 mph70%29.95 "HgN/A
11:00 PM
Thu, Feb 26
79 °FPassing clouds.5 mph79%29.95 "HgN/A
10:00 PM81 °FPassing clouds.5 mph74%29.95 "HgN/A
9:00 PM81 °FPassing clouds.6 mph74%29.92 "HgN/A
8:00 PM82 °FPassing clouds.8 mph66%29.92 "HgN/A
7:00 PM84 °FPassing clouds.8 mph66%29.89 "HgN/A
6:00 PM86 °FScattered clouds.7 mph59%29.86 "HgN/A
5:00 PM90 °FPassing clouds.9 mph46%29.86 "HgN/A
4:00 PM90 °FScattered clouds.12 mph46%29.83 "HgN/A
Weather by CustomWeather, © 2015

See weather overviewHow to use our weather pages